Regional Weather Roundup
Issued by NWS

Home | Current Version | Previous Version | Text Only | Print | Product List | Glossary Off
Versions: 1 2 3 4 5 6 7 8 9 10 11 12 13 14 15 16 17 18 19 20 21 22 23 24 25 26 27 28 29 30 31 32 33 34 35 36 37 38 39 40 41 42 43 44 45 46 47 48 49 50

000
ASUS43 KMKX 281503
RWRWI

WISCONSIN REGIONAL WEATHER ROUNDUP
NATIONAL WEATHER SERVICE MILWAUKEE/SULLIVAN WI
1000 AM CDT THU MAY 28 2015

NOTE: "FAIR" INDICATES FEW OR NO CLOUDS BELOW 12,000 FEET WITH NO
SIGNIFICANT WEATHER AND/OR OBSTRUCTIONS TO VISIBILITY.

WIZ001-002-006>008-014>016-023>028-281600-
NORTHWEST WISCONSIN

CITY           SKY/WX    TMP DP  RH WIND       PRES   REMARKS
SUPERIOR ARPT  CLOUDY    44  40  85 NE15G21   30.12F
ASHLAND        SUNNY     55  48  77 N8        30.11F
HAYWARD        SUNNY     73  58  59 S9        30.08S
SIREN          MOSUNNY   70  58  66 CALM      30.07S
CUMBERLAND     SUNNY     70  55  60 SW7       30.09F
RICE LAKE      SUNNY     72  58  60 S5        30.10F
CHETEK         SUNNY     73  61  65 CALM      30.10S
LADYSMITH      SUNNY     70  61  72 S6        30.13S
EAU CLAIRE     SUNNY     76  57  51 S8        30.09F
MENOMONIE      MOSUNNY   73  61  67 S5        30.10S
NEW RICHMOND   MOSUNNY   73  58  59 S6        30.08F
OSCEOLA        PTSUNNY   73  58  58 S5        30.10S
$$

WIZ003>005-009-010-017-018-281600-
NORTH CENTRAL WISCONSIN

CITY           SKY/WX    TMP DP  RH WIND       PRES   REMARKS
MANITOWISH WTR SUNNY     69  61  74 S5        30.12F
ARBOR VITAE    SUNNY     72  62  70 S5        30.13S
WOODRUFF       SUNNY     72  62  70 S5        30.13S
RHINELANDER    SUNNY     72  59  63 S6        30.14F
EAGLE RIVER    SUNNY     70  57  64 E3        30.14S
LAND O LAKES   SUNNY     71  57  61 SW5       30.15S
PHILLIPS       MOSUNNY   73  61  66 S5        30.11F
TOMAHAWK       SUNNY     71  60  70 CALM      30.14F
MEDFORD        SUNNY     70  60  72 SW6       30.14S
MERRILL        SUNNY     69  62  81 CALM      30.14F
$$

WIZ029-030-035-036-043>047-281600-
CENTRAL WISCONSIN

CITY           SKY/WX    TMP DP  RH WIND       PRES   REMARKS
WAUSAU         SUNNY     71  61  70 S5        30.13S
MOSINEE        SUNNY     70  63  78 SW6       30.16S
MARSHFIELD     SUNNY     74  60  61 SW10      30.14F
STEVENS POINT  SUNNY     69  60  72 SW7       30.16S
WAUPACA        SUNNY     73  64  71 CALM      30.16S
WAUTOMA        NOT AVBL
WISC RAPIDS    SUNNY     75  60  59 SW8       30.16F
CAMP DOUGLAS   NOT AVBL
$$

WIZ011>013-019>022-031-037>040-048>050-281600-
NORTHEAST WISCONSIN

CITY           SKY/WX    TMP DP  RH WIND       PRES   REMARKS
ANTIGO         SUNNY     70  64  80 CALM      30.16S
SHAWANO        SUNNY     68  61  77 CALM      30.16R
OCONTO         SUNNY     69  61  75 CALM      30.14F
STURGEON BAY   SUNNY     68  61  77 E7        30.19R
GREEN BAY      SUNNY     72  63  73 SW7       30.16R
MANITOWOC      NOT AVBL
APPLETON       SUNNY     73  57  56 SW9       30.17R
CLINTONVILLE   SUNNY     68  61  77 S3        30.16R
OSHKOSH        SUNNY     76  60  57 VRB5      30.16S
$$

WIZ032>034-041-042-053>061-281600-
SOUTHWEST WISCONSIN

CITY           SKY/WX    TMP DP  RH WIND       PRES   REMARKS
LA CROSSE      MOSUNNY   75  60  59 S7        30.12F
SPARTA         MOSUNNY   75  57  54 SW5       30.15S
VIROQUA        MOSUNNY   73  59  62 SW9       30.17S
BOSCOBEL       PTSUNNY   76  60  57 W3        30.15F
PRAIRIE DU CHI PTSUNNY   73  58  59 S3        30.15F
PLATTEVILLE    MOSUNNY   73  61  66 S6        30.18F
$$

WIZ056-057-062-063-064-067-068-281600-
SOUTH CENTRAL WISCONSIN

CITY           SKY/WX    TMP DP  RH WIND       PRES   REMARKS
REEDSBURG      SUNNY     73  61  66 SW5       30.17S
BARABOO/DELLS  SUNNY     72  59  63 SW8       30.17F
LONE ROCK      NOT AVBL
MINERAL POINT  MOSUNNY   73  61  64 S5        30.19F
MADISON        PTSUNNY   75  57  53 SW6       30.18F
MIDDLETON      SUNNY     76  56  49 SW9       30.19F
WATERTOWN      SUNNY    N/A N/A N/A SW10      30.20R
MONROE         SUNNY     72  59  64 S7        30.20S
JANESVILLE     SUNNY     75  57  53 SW6       30.19F
$$

WIZ051-052-058>065-066-070>072-281600-
SOUTHEAST WISCONSIN

CITY           SKY/WX    TMP DP  RH WIND       PRES   REMARKS
MILWAUKEE      MOSUNNY   76  57  51 W13       30.20R
WAUKESHA       SUNNY     73  57  56 SW9       30.22R
MILWAUKEE/TIMM SUNNY     75  55  50 SW12      30.21R
RACINE         SUNNY     75  59  57 W7        30.22S
BURLINGTON     SUNNY     73  57  56 SW6       30.21S
KENOSHA        SUNNY     75  60  59 SW7       30.21S
FOND DU LAC    SUNNY     75  60  59 SW10      30.18R
SHEBOYGAN      SUNNY     76  61  59 SW12      30.18R
WEST BEND      SUNNY     73  55  53 W7        30.20R
JUNEAU         SUNNY     71  60  67 SW13      30.21R
$$

LSZ147-162-281600-
LAKE SUPERIOR

STATION/POSITION TIME  TEMP    WIND        PRES    WAVE
                       AIR SEA DIR/SP/G            HT/PER
                 (UTC) (F)     (DEG/KT/KT) (MB)    (FT/S)
W MID LAKE BUOY  1350   38 37   50/ 16/ 17   N/A     2/ 4
DEVILS ISLAND    1400   40      60/ 15/ 17   N/A
PORT WING        1400   42      30/ 16/ 20   N/A
SAXON HARBOR     1400   46     330/  5/  8   N/A
$$

LMZ867-665-643>646-281600-
LAKE MICHIGAN

STATION/POSITION TIME  TEMP    WIND        PRES    WAVE
                       AIR SEA DIR/SP/G            HT/PER
                 (UTC) (F)     (DEG/KT/KT) (MB)    (FT/S)
CHAMBERS ISLAND  1400   56     360/  5/  7   N/A
N MID LAKE BUOY  1350   40 37  200/  4/  4   N/A     1/ 4
NORTHPORT PIER   1400   50     140/  6/  8   N/A
SISTER BAY       1418   59     350/  5/  6   N/A
ALGOMA LAKESHORE 1438          210/  5/  6   N/A
KEWAUNEE LAKESHO 1400   48     120/  3/  5   N/A
SHEBOYGAN LAKESH 1400   50     170/  8/  9   N/A
PORT WASHINGTON  1440          260/ 10/ 15   N/A
ATWATER BUOY     1400   57 48  160/  6/ 10   N/A
MILWAUKEE LAKESH 1400          240/ 10/ 13   N/A
S MID LAKE BUOY  1350   45 38  200/ 10/ 12   N/A     0
KENOSHA   LAKESH 1400   72     220/  8/  9   N/A
$$

TC  - TEMPERATURE IN CELSIUS
VSB - VISIBILITY IN STATUTE MILES
WCI - WIND CHILL INDEX
HX  - HEAT INDEX



USA.gov is the U.S. government's official web portal to all federal, state and local government web resources and services.